Theta_e
315 316 317 317 318 319 320 321 323 324 326 327 327 327 326 326 324 323 323 322 319 319 321 323 321 318 317 315 313 311 311 311 311 310 309 307 304 301 299 299 299 299
315 317 318 318 319 320 321 322 324 326 327 327 328 327 327 326 324 324 322 319 318 320 323 321 319 316 313 312 311 311 311 311 310 308 306 303 300 299 299 299 299 301
315 317 318 319 320 320 321 323 325 326 328 328 327 327 326 325 324 323 320 319 321 323 322 319 316 313 311 311 311 311 310 310 308 305 302 300 299 299 298 299 301 301
315 316 318 319 320 322 323 325 326 327 328 327 327 326 325 325 324 321 319 322 324 321 319 317 314 311 311 311 311 310 309 307 304 301 300 299 298 298 299 300 301 301
316 317 318 320 321 323 324 326 326 327 327 327 326 325 324 324 323 321 320 321 320 318 318 316 312 311 311 311 310 309 307 304 301 299 299 298 298 299 300 301 301 301
316 318 320 321 322 324 324 325 325 326 327 327 327 325 324 324 323 322 322 320 317 319 318 314 311 311 311 310 309 306 303 301 299 299 298 298 299 300 300 301 301 300
316 318 319 321 322 322 323 323 323 324 325 326 327 326 324 324 323 323 325 321 317 319 317 312 310 311 310 309 307 304 301 299 298 298 298 298 299 300 301 301 300 299
314 315 315 317 317 318 319 320 320 322 323 324 326 325 324 324 322 322 323 319 317 318 315 311 310 310 309 308 305 301 299 298 297 297 298 299 300 301 301 300 299 298
312 312 312 313 313 313 314 316 319 323 325 326 326 325 325 324 321 321 320 318 317 317 313 310 310 310 308 305 302 299 298 297 297 297 298 299 300 301 300 299 297 296
311 311 311 311 311 312 314 317 321 325 327 326 324 325 326 324 322 322 320 318 318 316 311 310 310 308 306 303 299 297 297 297 297 298 298 299 300 300 299 297 296 295
309 310 311 311 311 314 317 320 321 323 325 324 324 326 325 323 322 321 319 320 318 313 310 310 309 306 304 300 298 297 296 297 297 298 299 299 299 299 297 296 295 294
309 310 310 310 311 313 316 318 318 320 323 324 324 326 325 323 321 319 320 320 316 310 310 309 307 304 301 298 298 297 296 297 297 298 299 299 299 298 296 295 294 294
309 309 309 310 314 316 317 319 321 323 325 324 324 324 323 322 319 320 321 317 312 309 309 307 304 301 299 297 297 296 296 297 297 298 298 298 297 296 295 295 294 294
309 309 310 311 315 320 321 321 321 322 322 322 322 322 321 320 320 321 319 313 309 309 307 304 302 300 298 297 296 296 297 297 297 298 298 297 296 295 295 294 294 293
309 310 313 314 314 317 318 318 318 319 319 320 320 321 320 320 321 320 315 310 309 308 304 301 299 298 297 296 296 296 297 297 297 297 297 296 295 295 294 294 293 293
309 310 312 314 316 318 319 320 320 320 321 321 321 321 320 320 320 316 311 309 308 305 302 299 298 296 296 296 296 296 296 296 296 296 296 295 295 294 293 293 293 293
310 310 311 312 315 317 318 320 320 320 320 319 319 319 319 319 316 311 309 308 306 303 300 298 296 296 295 295 295 296 295 295 295 295 295 294 294 293 293 292 292 292
310 311 312 313 314 316 316 317 317 316 316 317 317 317 317 315 312 309 308 307 303 300 298 297 296 295 295 295 295 295 295 295 295 294 294 294 293 293 292 292 292 292
311 311 312 313 313 314 315 314 313 313 315 316 315 315 313 311 309 308 307 304 300 298 297 296 295 295 295 295 295 295 294 294 294 294 294 293 292 292 292 292 292 292
312 312 311 312 312 312 313 313 313 314 315 314 312 311 310 309 309 307 304 301 298 297 296 295 295 295 295 295 294 294 294 294 293 293 293 292 292 292 292 291 292 292
312 312 312 312 312 312 313 314 314 315 314 312 310 310 309 309 308 306 302 299 297 296 295 295 294 294 294 294 294 294 293 293 293 292 292 292 292 291 291 291 291 291
312 312 312 312 312 313 314 314 315 314 312 310 309 309 308 307 306 303 300 297 296 295 295 294 294 294 294 294 294 293 293 292 292 292 292 291 291 291 291 291 291 292
311 311 312 312 313 313 314 313 313 311 310 309 309 308 308 306 303 300 297 296 295 295 295 294 294 294 293 293 293 293 292 292 292 291 291 291 291 290 290 291 293 294
311 311 311 311 312 312 312 312 311 310 309 309 309 308 307 305 301 298 296 295 295 295 294 294 294 293 293 293 293 292 292 292 291 291 291 290 290 290 292 294 296 295
310 310 311 311 311 311 311 311 310 310 309 309 308 307 305 302 299 296 295 294 294 294 294 293 293 293 293 293 292 292 291 291 291 290 290 290 291 293 296 298 297 294
310 310 310 310 310 310 310 310 310 309 309 308 307 305 302 299 297 295 294 294 294 293 293 293 293 293 293 292 292 291 291 291 290 290 291 292 295 297 299 298 295 292
Wind_Speed
32 33 32 32 31 30 30 29 28 28 26 25 24 23 23 24 24 23 24 24 22 19 19 22 23 21 18 17 15 14 14 14 13 12 11 10 9 7 6 4 2 0
31 31 31 31 30 29 29 28 27 26 25 24 23 23 24 25 24 23 23 22 19 18 21 23 22 18 16 15 15 15 15 14 13 12 11 10 9 7 5 4 1 2
31 30 30 30 30 29 28 27 26 26 25 24 23 24 25 25 24 23 22 19 18 21 23 22 18 17 16 16 17 16 15 14 13 12 11 10 9 7 5 3 1 3
32 31 30 30 29 28 27 26 26 26 25 25 25 25 25 24 24 22 20 19 22 24 22 18 17 18 18 17 17 16 15 14 13 12 11 10 9 7 5 3 2 3
32 32 31 31 30 29 28 27 27 26 26 26 26 26 25 24 24 22 21 23 24 23 19 18 18 18 18 18 17 16 15 14 14 13 12 10 9 7 4 3 3 4
32 32 32 31 30 29 29 29 28 27 27 27 26 27 26 25 25 23 22 23 22 21 19 18 19 19 19 19 18 17 16 15 14 14 12 10 9 6 4 3 4 5
30 31 30 30 29 29 29 29 29 28 28 28 28 28 27 26 25 24 25 25 22 20 19 19 20 20 20 20 19 18 17 16 15 14 12 10 8 6 4 4 5 6
29 29 28 28 28 28 29 28 28 29 28 28 28 28 27 26 25 26 27 27 23 20 20 21 21 21 21 21 20 19 18 17 16 14 12 10 8 5 4 5 6 7
28 28 28 27 28 28 28 29 28 27 27 28 27 28 28 26 24 25 27 25 22 21 22 22 23 23 23 22 21 19 18 17 16 14 12 9 7 6 5 6 7 8
26 26 26 26 27 27 27 27 26 26 28 27 26 28 29 26 23 25 25 22 22 23 23 24 25 25 25 23 21 20 18 17 16 14 12 9 7 7 7 8 8 9
23 24 24 25 26 25 24 25 25 26 27 26 27 29 28 24 24 26 24 23 24 25 25 26 26 26 25 23 22 21 19 18 16 13 11 9 8 8 8 9 9 10
20 21 22 23 22 21 21 22 22 24 25 25 26 28 26 24 26 26 25 25 26 25 26 27 27 26 25 23 22 21 20 18 16 13 11 9 9 9 10 10 10 10
18 18 18 18 18 17 16 18 19 23 26 26 25 27 27 27 27 26 26 26 26 27 28 28 28 27 25 23 22 21 20 18 15 13 11 10 10 10 11 11 11 11
15 14 14 15 17 18 19 20 21 23 26 26 25 27 28 28 26 26 27 27 28 29 29 29 28 26 25 24 23 22 20 17 15 13 12 11 11 11 11 11 11 12
14 13 14 15 17 19 21 22 22 24 26 27 28 28 28 27 27 27 28 30 31 31 30 29 27 26 25 25 23 21 19 17 14 13 12 12 11 11 11 11 12 12
15 15 16 18 18 19 21 22 23 25 28 29 29 29 29 29 29 29 30 31 32 32 31 29 28 27 26 24 23 20 18 16 15 14 13 12 11 11 11 12 12 12
16 17 17 18 20 21 23 24 26 28 29 30 31 31 31 30 30 30 31 32 32 32 31 30 29 28 26 24 22 20 18 16 15 14 13 12 11 11 11 11 11 12
18 20 20 21 23 24 25 27 29 31 31 31 31 30 30 30 31 31 32 33 33 32 31 30 29 28 26 24 22 20 18 17 15 13 12 11 11 11 11 11 11 11
19 22 24 25 27 28 29 31 31 30 29 28 28 29 30 32 32 33 34 34 34 32 31 29 29 27 26 24 21 20 18 16 15 13 12 11 11 11 11 11 11 11
21 22 23 25 26 27 29 30 30 28 28 28 29 30 32 33 34 35 36 35 33 32 30 29 28 27 25 23 21 19 18 16 15 13 12 11 11 10 10 10 10 11
22 23 23 24 25 26 26 27 28 29 29 30 31 32 33 34 35 36 36 35 33 32 31 29 28 26 25 23 21 19 17 16 14 13 12 11 10 10 10 9 9 11
22 23 24 25 26 26 26 27 29 30 30 31 32 34 35 35 36 36 36 35 34 32 31 29 28 26 25 23 21 19 17 16 14 13 12 11 10 9 8 8 9 12
23 23 23 24 25 27 27 28 30 30 31 32 34 35 36 37 37 37 36 35 34 32 31 30 28 26 24 22 20 19 17 15 14 13 12 10 9 8 7 8 10 12
22 23 24 24 25 26 28 29 30 31 32 33 35 36 37 38 38 37 36 35 33 32 31 29 27 26 24 22 20 19 17 15 14 13 11 10 8 7 7 9 10 13
22 23 24 25 26 26 28 29 30 31 32 34 36 37 38 38 38 38 37 35 34 32 30 29 27 25 23 22 21 19 17 16 14 12 11 9 8 8 9 10 12 15
21 23 24 26 27 27 28 29 31 32 33 36 37 38 39 39 39 38 37 36 35 33 31 29 27 25 24 23 21 19 18 16 14 13 11 10 10 11 12 12 14 17
Wind_Direction
244 245 246 247 248 249 249 249 250 250 251 251 251 249 248 250 251 247 246 249 249 240 234 241 252 252 240 232 229 223 216 207 199 193 188 186 186 183 182 182 179 306
244 245 245 245 246 246 247 247 247 248 248 249 249 246 243 246 249 248 247 249 245 237 240 248 252 242 225 218 215 209 202 196 190 185 183 182 183 181 179 183 215 327
244 244 244 244 244 245 246 246 245 245 244 244 243 241 242 245 247 248 249 245 237 236 244 250 243 225 213 208 203 199 195 190 186 184 182 181 182 185 183 187 263 320
243 244 243 244 244 244 245 245 244 243 240 238 236 236 241 244 245 246 241 232 232 240 247 244 228 213 205 200 196 194 190 185 184 184 184 185 187 186 185 204 274 312
243 244 243 244 244 244 244 243 242 240 238 237 235 236 239 240 243 245 237 230 234 243 245 232 218 207 199 196 192 191 189 184 185 187 188 189 189 189 194 226 282 307
244 243 243 243 243 243 243 241 241 238 236 236 236 237 236 236 241 242 238 238 239 242 241 225 212 204 196 194 192 189 188 187 189 191 190 191 191 195 205 240 284 296
247 246 244 243 243 243 242 242 240 237 235 233 233 236 235 232 234 231 233 241 241 238 233 220 210 203 195 194 194 190 188 188 193 193 192 194 196 205 223 254 278 287
251 250 248 246 245 244 242 241 238 235 235 232 230 234 234 230 231 228 233 241 240 232 224 214 207 201 196 196 195 193 191 190 193 194 195 198 203 216 238 259 272 277
249 249 248 246 245 244 241 239 235 232 233 231 230 233 231 230 233 232 234 239 235 226 218 208 203 198 197 198 194 193 194 194 194 195 198 204 213 229 246 257 264 267
246 245 244 242 241 240 237 235 231 228 229 229 230 230 226 226 229 230 235 239 231 220 212 204 199 197 197 197 194 192 195 197 197 198 202 209 220 235 248 253 258 262
245 242 240 239 237 235 233 231 228 225 226 228 229 224 221 225 229 230 236 237 228 216 207 201 198 198 198 197 195 194 195 198 200 201 206 215 226 239 248 252 256 260
242 240 238 236 233 231 228 225 225 222 220 225 226 221 220 227 231 234 238 233 221 211 203 200 198 198 199 199 198 197 197 200 203 205 211 220 232 243 248 252 256 261
240 237 235 228 224 227 226 221 223 222 217 218 221 221 224 229 231 235 236 226 213 205 200 199 199 199 198 200 200 200 200 203 205 208 216 225 234 242 248 253 260 263
244 236 230 221 213 215 219 217 218 219 215 216 221 224 228 233 236 237 230 216 205 201 199 199 200 201 200 200 200 201 203 204 207 212 220 228 235 243 249 256 263 267
244 231 224 223 216 212 215 217 217 218 218 219 222 225 229 234 236 232 222 209 201 198 199 199 201 203 203 202 202 204 205 206 210 216 223 231 238 246 254 259 265 271
243 234 222 220 220 218 219 220 218 218 218 218 222 227 233 235 232 222 213 206 200 198 199 200 201 203 204 203 204 206 208 209 214 220 226 234 241 249 256 261 268 277
242 239 231 222 218 219 220 219 218 219 222 226 230 233 233 230 222 212 206 204 202 201 201 202 202 203 203 204 205 207 209 213 218 223 228 236 244 250 256 264 274 283
236 232 230 226 222 221 222 224 226 228 229 231 231 228 223 217 211 207 204 203 203 203 204 203 204 205 205 206 207 208 211 215 220 226 231 238 245 252 260 270 278 288
243 231 227 225 224 224 226 229 232 231 228 225 221 217 213 209 206 204 204 204 204 205 205 206 206 206 206 207 208 210 214 217 222 227 233 239 247 256 265 273 283 294
251 242 235 231 228 227 228 230 231 227 221 217 215 213 210 208 206 204 204 205 205 206 207 208 208 208 208 209 210 212 215 219 223 228 234 241 249 258 267 277 289 299
250 247 242 238 234 232 230 229 225 220 215 214 214 213 212 209 207 206 206 206 207 208 209 209 209 209 210 211 212 214 217 220 224 228 235 242 250 259 268 281 295 305
250 247 243 240 236 233 230 225 220 216 214 214 214 213 211 210 209 208 209 209 209 210 210 210 210 211 212 213 215 216 218 221 225 230 236 244 252 260 271 290 305 312
253 250 246 241 237 232 226 222 219 217 217 217 215 213 211 210 210 210 210 211 212 213 213 212 211 212 213 215 217 218 220 223 227 231 237 244 250 260 280 297 303 304
255 252 249 244 239 234 227 223 222 222 221 220 218 216 214 212 212 211 212 213 215 216 216 215 214 214 215 217 218 220 221 224 228 232 236 240 246 260 279 286 288 291
257 254 251 247 244 239 234 231 230 228 226 222 219 218 216 215 214 213 214 215 215 216 217 217 216 216 217 218 220 221 222 224 228 230 231 235 245 258 269 273 279 288
258 256 253 250 247 244 240 238 235 232 228 224 220 218 217 216 216 216 216 217 217 216 217 217 218 218 218 220 221 221 223 225 226 227 229 235 248 257 262 268 279 289